Orbital elements:
2017 BG29                                                Earth MOID = 0.0694 AU
Epoch 2017 Feb. 16.0 TT = JDT 2457800.5                 MPC
M  18.13770              (2000.0)            P               Q
n   0.69110232     Peri.  170.37015     -0.50263575     -0.84526563
a   1.2669938      Node   309.56485     +0.77668734     -0.34942313
e   0.1694078      Incl.   13.60501     +0.37962360     -0.40426414
P   1.43           H   24.3           G   0.15           U   7
Residuals in seconds of arc
170127 G96  0.1+  0.2-    170127 C43 (2.9+  1.0-)   170128 926  0.3-  0.1+
170127 G96  0.0   0.0     170127 C43 (2.8+  0.5-)   170128 926  0.1-  0.0
170127 G96  0.7+  0.7-    170127 C43 (0.4+  1.6+)   170128 246  0.5+  0.0
170127 G96  0.1+  0.3+    170127 104  0.0   0.4-    170128 246  0.1-  0.2+
170127 G96  0.2+  0.1+    170127 104  0.1-  0.6-    170128 246  0.6+  0.5+
170127 G96  0.0   0.3+    170127 104  0.4-  0.3-    170128 246  0.2-  0.4+
170127 G96  0.2+  0.0     170127 J04  0.1-  0.3-    170128 246  0.1+  0.0
170127 113  0.6-  0.3+    170127 J04  0.1-  0.2-    170128 246  0.1-  0.9+
170127 113  0.8-  0.5+    170127 J04  0.0   0.2-    170128 246  0.0   0.6-
170127 113 (0.2+  1.7-)   170128 G96  0.2+  0.2+    170128 C43  0.0   0.7-
170127 113  0.5+  0.9-    170128 G96  0.0   0.2+    170128 B15  0.1+  0.5+
170127 K88  0.1-  0.1+    170128 G96  0.0   0.1+    170128 B15  0.1-  0.4+
170127 K88  0.2-  0.3+    170128 G96  0.1+  0.1-    170128 C43  0.6+  0.7-
170127 K88  0.2-  0.2+    170128 H21  0.0   0.1+    170128 B15  0.1+  0.2+
170127 K51  0.2-  0.1+    170128 H21  0.1+  0.1+    170128 B15  0.0   0.3+
170127 K51  0.1-  0.1+    170128 G45  0.3+  0.2+    170128 C43  0.2-  0.7-
170127 K51  0.1-  0.1+    170128 G45  0.5+  0.3-    170128 204  0.3-  0.1-
170127 246  0.5-  1.3+    170128 H21  0.1-  0.0     170128 204  0.0   0.2+
170127 246  0.1+  0.8+    170128 H21  0.1-  0.1-    170128 204  0.0   0.2-
170127 246  0.1+  0.7-    170128 G45  0.4-  0.3-    170128 J69  0.2-  0.1-
170127 246  0.5+  0.8+    170128 G45  0.1+  0.1+    170128 J69  0.0   0.0
170127 246  0.2+  0.4-    170128 G45  0.2-  0.0     170128 Z99  0.2-  0.1+
170127 246  0.1+  0.2-    170128 G45  0.1-  0.1+    170128 Z99  0.3+  0.1-
170127 246  0.2-  0.3-    170128 G45  0.1+  0.0     170128 Z99  0.1-  0.4-
170127 246  0.1-  0.4-    170128 926  0.1-  0.1-

Ephemeris:
2017 BG29                a,e,i = 1.27, 0.17, 14                  q = 1.0524
Date    TT    R. A. (2000) Decl.     Delta      r     Elong.  Phase     V
2016 12 30    10 22 21.3 +79 03 36   0.1480  1.0628   118.9    54.1    22.3
...
2017 01 14    08 46 03.6 +66 04 26   0.09691 1.0533   134.1    42.1    21.0
...
2017 01 22    08 11 20.4 +48 43 57   0.07719 1.0524   151.0    27.0    20.1
...
2017 01 28    07 54 42.1 +29 42 04   0.07113 1.0535   164.3    14.6    19.5
2017 01 29    07 52 35.9 +26 16 27   0.07110 1.0539   165.2    13.8    19.5
2017 01 30    07 50 40.0 +22 51 03   0.07137 1.0543   165.2    13.8    19.5
...
2017 02 05    07 42 18.6 +03 55 51   0.07884 1.0576   154.4    23.8    20.0
...
2017 02 13    07 37 53.7 -13 33 10   0.1004  1.0644   138.3    38.1    21.0
...
2017 02 28    07 42 51.2 -28 19 47   0.1561  1.0840   123.2    49.9    22.3

A. U. Tomatic                (C) Copyright 2017 MPC           M.P.E.C. 2017-B106




More information about the Iaude mailing list